Weather History for Christchurch, New Zealand

Change the Weather History Date:

Friday, June 7, 2013

  Actual Average Record
Temperature  
Mean Temperature 43 °F -  
Max Temperature 53 °F 51 °F - ()
Min Temperature 33 °F 33 °F - ()
Degree Days  
Heating Degree Days 22    
Moisture  
Dew Point 39 °F    
Average Humidity 86    
Maximum Humidity 100    
Minimum Humidity 67    
Precipitation  
Precipitation 0.00 in - - ()
Sea Level Pressure  
Sea Level Pressure 30.26 in    
Wind  
Wind Speed 7 mph ()    
Max Wind Speed 12 mph    
Max Gust Speed -    
Visibility 6.2 miles    
Events      
T = Trace of Precipitation, MM = Missing Value Source: Averaged Metar Reports

Daily Weather History Graph

Daily Weather History Graph

Search for Another Location

Airport:

Trip Planner

Search our weather history database for the weather conditions in past years. The results will help you decide how hot, cold, wet, or windy it might be!

Date:

Astronomy

Jun. 07, 2013 Rise Set
Actual Time 7:56 AM NZST 5:00 PM NZST
Civil Twilight 7:24 AM NZST 5:32 PM NZST
Nautical Twilight 6:48 AM NZST 6:08 PM NZST
Astronomical Twilight 6:13 AM NZST 6:43 PM NZST
Moon 6:15 AM NZST (6/7) 4:03 PM NZST (6/7)
Length of Visible Light 10h 08m
Length of Day
9h 03m
Waning Crescent, 2% of the Moon is Illuminated
Jun 7
Waning Crescent
Jun 9
New
Jun 17
First Quarter
Jun 23
Full
Jun 30
Last Quarter

Hourly Weather History & Observations

Time (NZST) Temp. Windchill Dew Point Humidity Pressure Visibility Wind Dir Wind Speed Gust Speed Precip Events Conditions
12:00 AM 37.4 °F 32.8 °F 35.6 °F 93% 30.33 in 6.2 mi NNE 5.8 mph - N/A   Partly Cloudy
1:00 AM 37.4 °F 31.4 °F 35.6 °F 93% 30.33 in 6.2 mi NE 8.1 mph - N/A   Partly Cloudy
2:00 AM 35.6 °F 29.9 °F 33.8 °F 93% 30.33 in 6.2 mi NE 6.9 mph - N/A   Partly Cloudy
3:00 AM 35.6 °F 29.2 °F 33.8 °F 93% 30.30 in - NE 8.1 mph - N/A   Clear
4:00 AM 35.6 °F 29.2 °F 35.6 °F 100% 30.30 in - NE 8.1 mph - N/A   Clear
5:00 AM 37.4 °F 32.8 °F 35.6 °F 93% 30.30 in - NNE 5.8 mph - N/A   Clear
6:00 AM 35.6 °F 30.7 °F 33.8 °F 93% 30.30 in - NE 5.8 mph - N/A   Clear
7:00 AM 39.2 °F 33.0 °F 35.6 °F 87% 30.30 in - ENE 9.2 mph - N/A   Clear
8:00 AM 33.8 °F 28.6 °F 32.0 °F 93% 30.30 in - NE 5.8 mph - N/A   Clear
9:00 AM 37.4 °F 33.8 °F 35.6 °F 93% 30.30 in - NE 4.6 mph - N/A   Clear
10:00 AM 42.8 °F 38.6 °F 39.2 °F 87% 30.30 in - NE 6.9 mph - N/A   Clear
11:00 AM 46.4 °F 42.9 °F 39.2 °F 76% 30.30 in - NE 6.9 mph - N/A   Clear
12:00 PM 50.0 °F - 41.0 °F 71% 30.27 in - ENE 9.2 mph - N/A   Clear
1:00 PM 51.8 °F - 41.0 °F 67% 30.27 in 6.2 mi ENE 9.2 mph - N/A   Unknown
2:00 PM 53.6 °F - 42.8 °F 67% 30.24 in - East 10.4 mph - N/A   Clear
3:00 PM 53.6 °F - 42.8 °F 67% 30.21 in - ENE 11.5 mph - N/A   Clear
4:00 PM 51.8 °F - 42.8 °F 71% 30.21 in - East 11.5 mph - N/A   Clear
5:00 PM 48.2 °F - 44.6 °F 87% 30.21 in - ENE 9.2 mph - N/A   Clear
6:00 PM 44.6 °F 40.7 °F 41.0 °F 87% 30.21 in - ENE 6.9 mph - N/A   Clear
7:00 PM 44.6 °F 42.2 °F 41.0 °F 87% 30.18 in - ENE 4.6 mph - N/A   Clear
8:00 PM 46.4 °F 41.9 °F 44.6 °F 93% 30.18 in - East 9.2 mph - N/A   Clear
9:00 PM 48.2 °F - 44.6 °F 87% 30.18 in - East 9.2 mph - N/A   Clear
10:00 PM 46.4 °F 42.4 °F 42.8 °F 87% 30.18 in - ENE 8.1 mph - N/A   Clear
11:00 PM 42.8 °F 41.1 °F 41.0 °F 93% 30.15 in - NNE 3.5 mph - N/A   Clear